Terminal Aerodrome Forecast
Issued by NWS

Home | Current Version | Previous Version | Text Only | Print | Product List | Glossary On
Versions: 1 2 3 4 5 6 7 8 9 10 11 12 13 14 15 16 17 18 19 20 21 22 23 24 25 26 27 28 29 30 31 32 33 34 35 36 37 38 39 40 41 42 43 44 45 46 47 48 49 50
285
FTUS46 KEKA 170811 AAA
TAFACV
TAF AMD
KACV 170811Z 1708/1806 00000KT 5SM BR SCT250
     FM171200 12005KT P6SM FEW005 OVC120
     FM171800 14008KT P6SM VCSH OVC070 WS020/18030KT
     FM180300 16012KT 6SM -RA OVC050 WS020/18035KT=

USA.gov is the U.S. government's official web portal to all federal, state and local government web resources and services.